Weather in Ceduna

Australia     32°07′45″S   133°41′04″E
temp.,
°C
wind,
m/s
gust,
m/s
humid.,
%
clouds,
%
prec.,
mm/h
press.,
hPa
HPBL,
m
15 may, sat
sat1500:30+16s777168 0.2 1026709
03:30+16s776399 0.3 10261016
06:30+16sse6663100 0.1 1027760
09:30+16sse5563100 0.1 1028825
12:30+16s65587 0.1 10281036
15:30+16s556447 0.1 1027772
18:30+16sse556718 0.1 1028564
21:30+16sse66621 0.1 1029691
16 may, sun
sun1600:30+15ese45650 0.0 1028682
03:30+13e33700 0.0 1028196
06:30+12ene33729 0.0 1029144
09:30+13ne336678 0.0 1030240
12:30+15s215485 0.0 1029554
15:30+16s43578 0.0 1028544
18:30+15sse55680 0.0 1028344
21:30+15se55640 0.0 1029614
17 may, mon
mon1700:30+14ese56670 0.0 1029441
03:30+12e45700 0.0 1029186
06:30+11ene45730 0.0 1029187
09:30+13ne46630 0.0 1031291
12:30+17ne24460 0.0 10291059
15:30+18s23492 0.0 1027517
18:30+16se66595 0.0 1028206
21:30+16e34535 0.0 1028144
18 may, tue
tue1800:30+15ne585294 0.0 1027191
03:30+13nne6955100 0.0 1027230
06:30+13nne6105399 0.0 1027249
09:30+14nne7114798 0.0 1028411
12:30+19n794023 0.0 1026482
15:30+20n5638100 0.0 1024395
18:30+19n4441100 0.0 102539
21:30+17nne4643100 0.0 102596
19 may, wed
wed1900:30+17nne5942100 0.0 1025198
03:30+16nne61143100 0.0 1024330
06:30+15n61144100 0.0 1026305
09:30+17n61041100 0.0 1027339
12:30+20nnw453894 0.0 1026289
15:30+20nw114311 0.0 1025350
18:30+19e233947 0.0 102512
21:30+18ene33394 0.0 102725